User: anonymous   Login
Location: Newark
(37.8444°N, 127.0614°E)
Time: 21:23:13
(UTC+00:00)
Language:

BUGSAT 1 - Orbit

View from above orbital plane
View from above orbital plane
View from above satellite
View from above satellite

Ground track
Ground track

The orbit data is extracted from the following two-line orbital elements,

1 40014U 14033E   20023.45866356 -.00000048  00000-0  13472-5 0  9995
2 40014  98.0445 341.2448 0033195  56.4725 303.9623 14.95384956305195
Epoch (UTC): 23 January 2020 11:00:28
Eccentricity: 0.0033195
inclination: 98.0445°
perigee height: 558 km
apogee height: 604 km
right ascension of ascending node: 341.2448°
argument of perigee: 56.4725°
revolutions per day: 14.95384956
mean anomaly at epoch: 303.9623°
orbit number at epoch: 30519

The dashed part of the orbit path shows where the satellite is in the earth's shadow,  

DLR